Domov               UVHVVR             MKGP            O straneh              
ZDRAVSTVENO VARSTVO RASTLIN
  MREŽA AGROMET. POSTAJ
 ► PROGNOSTIČNA OBVESTILA
AGROMETEOROLOŠKI PODATKI -
ARSO
OBVLADOVANJE TVEGANJ ZARADI
NEUGODNIH VREMENSKIH RAZMER
  ► NARAVNE NESREČE
  ► SUŠA/MOČA
  ► NAMAKANJE
  ► ŽLED (gozdarstvo)
KARTOGRAFSKI PRIKAZI
SPLETNE POVEZAVE
PROJEKTI IN PUBLIKACIJE

AGROMETEOROLOŠKA MREŽA: VREMENSKE POSTAJE IN FENOLOŠKA OPAZOVANJA

Pregled podatkov za lokacijo Virštanj, meteorološka postaja 39749

Pregled senzorjev na lokaciji

ID Ime Zadnja
vrednost
Datum
zadnje
spremembe
Tip
senzorja
3124 Temperatura 2 m ( °C) 24,35 °C 28.6.2017 17:00 50YA
3125 Relativna vlaga 2 m (% RH) 71,58 % RH 28.6.2017 17:00 50YA
3127 Padavine 0.2 mm (mm) 0 mm 28.6.2017 17:00 Rain-O-Matic

Pregled podatkov zadnjih 24 ur

Zap.
št.
Datum in čas Virštanj
Padavine
0.2
mm
Relativna
vlaga
2
m
Temperatura
2
m
0 28.6.2017 16:00 0 71,58 24,35
1 28.6.2017 15:30 0 74,48 22,95
2 28.6.2017 15:00 0 70,67 23,61
3 28.6.2017 14:30 0 64,18 25,57
4 28.6.2017 14:00 0 57,02 27,35
5 28.6.2017 13:30 0 56,17 27,11
6 28.6.2017 13:00 0 57,48 26,79
7 28.6.2017 12:30 0 61 27,01
8 28.6.2017 12:00 0 57,85 27,62
9 28.6.2017 11:30 0 55,04 28,74
10 28.6.2017 11:00 0 58,05 28,47
11 28.6.2017 10:30 0 59,49 27,94
12 28.6.2017 10:00 0 58,93 27,35
13 28.6.2017 09:30 0 58,05 26,74
14 28.6.2017 09:00 0 60,63 26,23
15 28.6.2017 08:30 0 70,38 24,32
16 28.6.2017 08:00 0 75,34 23,54
17 28.6.2017 07:30 0 77,29 22,95
18 28.6.2017 07:00 0 78,71 21,9
19 28.6.2017 06:30 0 77,48 22,27
20 28.6.2017 06:00 0 81,39 20,73
21 28.6.2017 05:30 0 83,13 19,83
22 28.6.2017 05:00 0 83,08 19,24
23 28.6.2017 04:30 0 82,86 19,19
24 28.6.2017 04:00 0 80,83 19,51
25 28.6.2017 03:30 0 82,61 19,12
26 28.6.2017 03:00 0 78,14 20,12
27 28.6.2017 02:30 0 77,66 20,32
28 28.6.2017 02:00 0 79,66 19,8
29 28.6.2017 01:30 0 75,82 20,76
30 28.6.2017 01:00 0 75,19 20,98
31 28.6.2017 00:30 0 73,26 21,17
32 28.6.2017 00:00 0 72,04 21,37
33 27.6.2017 23:30 0 72,58 21,22
34 27.6.2017 23:00 0 72,21 21,34
35 27.6.2017 22:30 0 70,77 21,47
36 27.6.2017 22:00 0 67,59 22,2
37 27.6.2017 21:30 0 65,93 22,56
38 27.6.2017 21:00 0 69,11 22,2
39 27.6.2017 20:30 0 71,72 22,22
40 27.6.2017 20:00 0 68,52 22,91
41 27.6.2017 19:30 0 66,52 23,1
42 27.6.2017 19:00 0 68,11 23,42
43 27.6.2017 18:30 0 66,52 23,93
44 27.6.2017 18:00 0 63,1 24,64
© 2011 Ministrstvo za kmetijstvo, gozdarstvo in prehrano. Vse pravice pridržane.